Location: Auckland
(36.8670°S, 174.7670°E)
Time: 00:34:30
(UTC+12:00)

Cosmos 292 Rocket - Pass Details

Date: 24 January 2019
Orbit: 674 x 694 km, 74.0° (Epoch: 19 April)

Event Time Altitude Azimuth Distance (km) Brightness Sun altitude
Rises 21:36:39 0° 201° (SSW) 3,064 8.1 -11.0°
Reaches altitude 10° 21:38:58 10° 203° (SSW) 2,143 7.3 -11.4°
Maximum altitude 21:43:46 69° 285° (WNW) 736 4.1 -12.1°
Drops below altitude 10° 21:48:31 10° 8° (N) 2,124 5.9 -12.9°
Enters shadow 21:48:50 - 8° (N) 2,244 6.0 -13.0°
